This is the latest recevied weather packets stored in our database for station/object KF0PEC-15. If no packets are shown the sender has not sent any weather packets the latest 10 day(s).
| Time | Temp. | Humidity | Pressure | Rain* | Wind** | Luminosity | Snow |
|---|---|---|---|---|---|---|---|
| 1777794410 | 4.44° C | 58% | 1024.2 hPa | 0 mm | - | 0 W/m² | - |
| 1777793895 | 4.44° C | 60% | 1024.8 hPa | 0 mm | - | 0 W/m² | - |
| 1777793345 | 4.44° C | 61% | 1024.8 hPa | 0 mm | - | 0 W/m² | - |
| 1777792828 | 4.44° C | 62% | 1024.6 hPa | 0 mm | - | 0 W/m² | - |
| 1777792255 | 4.44° C | 60% | 1024.6 hPa | 0 mm | - | 0 W/m² | - |
| 1777791675 | 4.44° C | 64% | 1024.8 hPa | 0 mm | - | 0 W/m² | - |
| 1777791150 | 4.44° C | 62% | 1024.6 hPa | 0 mm | - | 0 W/m² | - |
| 1777790665 | 5° C | 63% | 1024.6 hPa | 0 mm | - | 0 W/m² | - |
| 1777790077 | 5° C | 61% | 1024.4 hPa | 0 mm | - | 0 W/m² | - |
| 1777789505 | 5.56° C | 62% | 1024.4 hPa | 0 mm | - | 0 W/m² | - |
| 1777788955 | 5.56° C | 61% | 1024.2 hPa | 0 mm | - | 0 W/m² | - |
| 1777788450 | 5.56° C | 59% | 1024.1 hPa | 0 mm | - | 0 W/m² | - |
| 1777787885 | 6.11° C | 58% | 1023.9 hPa | 0 mm | - | 0 W/m² | - |
| 1777787291 | 6.11° C | 58% | 1023.7 hPa | 0 mm | - | 0 W/m² | - |
| 1777786705 | 6.11° C | 57% | 1023.8 hPa | 0 mm | - | 0 W/m² | - |
| 1777786160 | 6.67° C | 55% | 1023.5 hPa | 0 mm | - | 0 W/m² | - |
| 1777785640 | 6.67° C | 54% | 1023.6 hPa | 0 mm | - | 0 W/m² | - |
| 1777785097 | 6.67° C | 53% | 1023.2 hPa | 0 mm | - | 0 W/m² | - |
| 1777784540 | 7.22° C | 53% | 1023.2 hPa | 0 mm | - | 0 W/m² | - |
| 1777784023 | 7.22° C | 51% | 1022.9 hPa | 0 mm | - | 0 W/m² | - |
| 1777783477 | 7.78° C | 49% | 1022.5 hPa | 0 mm | - | 0 W/m² | - |
| 1777782955 | 7.78° C | 49% | 1022.3 hPa | 0 mm | - | 0 W/m² | - |
| 1777782470 | 8.33° C | 47% | 1021.9 hPa | 0 mm | - | 0 W/m² | - |
| 1777781950 | 8.89° C | 45% | 1021.6 hPa | 0 mm | - | 0 W/m² | - |
| 1777781430 | 8.89° C | 45% | 1021.3 hPa | 0 mm | - | 0 W/m² | - |
* Rain latest hour (hover to see other rain measurements)
** Current wind speed in m/s (hover to see current wind gust speed)